contact:dominique.lefevre@mio.osupytheas.fr, maurice.libes@osupytheas.fr, didier.mallarino@osupytheas.fr
Project:EMSO http://www.emso-fr.org/EMSO-France
Depth: 2436.0 m
Title:EMSO Ligure Ouest : Data MII capteur CSTAR
DateTime,Latitude,Longitude,Instrument_Serial,Reference_Counts,Signal_Counts,Corrected_Signal_raw_counts,Calculated_Beam_c_inverse_meters,Internal_thermistor_counts
DateTime,Latitude,Longitude,Instrument_Serial,Reference_Counts,Signal_Counts,Corrected_Signal_raw_counts,Calculated_Beam_c_inverse_meters,Internal_thermistor_counts
2023-07-25T00:02:16,42.805,6.029,CST-1368DR,4236,4619,11570,01.200,552
2023-07-25T00:05:18,42.805,6.029,CST-1368DR,4236,4620,11573,01.198,552
2023-07-25T00:08:20,42.805,6.029,CST-1368DR,4236,4621,11575,01.198,552
2023-07-25T00:11:21,42.805,6.029,CST-1368DR,4236,4621,11575,01.198,552
2023-07-25T00:14:23,42.805,6.029,CST-1368DR,4236,4621,11574,01.198,552
2023-07-25T00:17:24,42.805,6.029,CST-1368DR,4236,4621,11574,01.198,552
2023-07-25T00:20:26,42.805,6.029,CST-1368DR,4236,4620,11572,01.199,552
2023-07-25T00:23:28,42.805,6.029,CST-1368DR,4236,4621,11573,01.198,552
2023-07-25T00:26:29,42.805,6.029,CST-1368DR,4236,4620,11573,01.198,552
2023-07-25T00:29:31,42.805,6.029,CST-1368DR,4236,4620,11572,01.199,552
2023-07-25T00:32:32,42.805,6.029,CST-1368DR,4236,4621,11574,01.198,552
2023-07-25T00:35:34,42.805,6.029,CST-1368DR,4236,4621,11574,01.198,552
2023-07-25T00:38:35,42.805,6.029,CST-1368DR,4236,4620,11572,01.199,552
2023-07-25T00:41:37,42.805,6.029,CST-1368DR,4236,4622,11576,01.197,552
2023-07-25T00:44:39,42.805,6.029,CST-1368DR,4236,4620,11572,01.199,552
2023-07-25T00:47:40,42.805,6.029,CST-1368DR,4236,4621,11575,01.198,552
2023-07-25T00:50:42,42.805,6.029,CST-1368DR,4236,4621,11573,01.198,552
2023-07-25T00:53:43,42.805,6.029,CST-1368DR,4236,4621,11575,01.198,552
2023-07-25T00:56:45,42.805,6.029,CST-1368DR,4235,4622,11579,01.196,552
2023-07-25T00:59:46,42.805,6.029,CST-1368DR,4236,4621,11574,01.198,552
2023-07-25T01:02:48,42.805,6.029,CST-1368DR,4236,4621,11573,01.198,552
2023-07-25T01:05:50,42.805,6.029,CST-1368DR,4236,4640,11621,01.182,552
2023-07-25T01:08:51,42.805,6.029,CST-1368DR,4236,4639,11620,01.182,552
2023-07-25T01:11:53,42.805,6.029,CST-1368DR,4236,4641,11623,01.181,552
2023-07-25T01:14:54,42.805,6.029,CST-1368DR,4236,4641,11623,01.181,552
2023-07-25T01:17:56,42.805,6.029,CST-1368DR,4236,4640,11623,01.181,552
2023-07-25T01:20:57,42.805,6.029,CST-1368DR,4236,4640,11622,01.182,552
2023-07-25T01:23:59,42.805,6.029,CST-1368DR,4236,4640,11622,01.182,552
2023-07-25T01:27:01,42.805,6.029,CST-1368DR,4236,4639,11620,01.182,552
2023-07-25T01:30:02,42.805,6.029,CST-1368DR,4236,4639,11620,01.182,552
2023-07-25T01:33:04,42.805,6.029,CST-1368DR,4236,4639,11620,01.182,552
2023-07-25T01:36:05,42.805,6.029,CST-1368DR,4236,4640,11622,01.182,552
2023-07-25T01:39:07,42.805,6.029,CST-1368DR,4236,4639,11619,01.183,552
2023-07-25T01:42:09,42.805,6.029,CST-1368DR,4236,4640,11621,01.182,552
2023-07-25T01:45:10,42.805,6.029,CST-1368DR,4236,4639,11620,01.182,552
2023-07-25T01:48:12,42.805,6.029,CST-1368DR,4236,4639,11620,01.182,552
2023-07-25T01:51:13,42.805,6.029,CST-1368DR,4236,4640,11621,01.182,552
2023-07-25T01:54:15,42.805,6.029,CST-1368DR,4236,4639,11620,01.182,552
2023-07-25T01:57:16,42.805,6.029,CST-1368DR,4236,4639,11620,01.182,552
2023-07-25T02:00:18,42.805,6.029,CST-1368DR,4236,4639,11620,01.182,552
2023-07-25T02:03:20,42.805,6.029,CST-1368DR,4236,4639,11620,01.182,552
2023-07-25T02:06:21,42.805,6.029,CST-1368DR,4236,4638,11618,01.183,552
2023-07-25T02:09:23,42.805,6.029,CST-1368DR,4236,4639,11620,01.182,552
2023-07-25T02:12:24,42.805,6.029,CST-1368DR,4236,4639,11618,01.183,552
2023-07-25T02:15:26,42.805,6.029,CST-1368DR,4236,4638,11618,01.183,552
2023-07-25T02:18:27,42.805,6.029,CST-1368DR,4236,4639,11620,01.182,552
2023-07-25T02:21:29,42.805,6.029,CST-1368DR,4236,4639,11620,01.182,552
2023-07-25T02:24:31,42.805,6.029,CST-1368DR,4236,4639,11619,01.183,552
2023-07-25T02:27:32,42.805,6.029,CST-1368DR,4236,4638,11618,01.183,552
2023-07-25T02:30:34,42.805,6.029,CST-1368DR,4236,4639,11618,01.183,552
2023-07-25T02:33:35,42.805,6.029,CST-1368DR,4236,4639,11618,01.183,552
2023-07-25T02:36:37,42.805,6.029,CST-1368DR,4236,4637,11615,01.184,552
2023-07-25T02:39:39,42.805,6.029,CST-1368DR,4236,4639,11620,01.182,552
2023-07-25T02:42:40,42.805,6.029,CST-1368DR,4236,4631,11600,01.189,552
2023-07-25T02:45:42,42.805,6.029,CST-1368DR,4236,4631,11598,01.190,552
2023-07-25T02:48:43,42.805,6.029,CST-1368DR,4235,4628,11594,01.191,552
2023-07-25T02:51:45,42.805,6.029,CST-1368DR,4236,4628,11592,01.192,552
2023-07-25T02:54:46,42.805,6.029,CST-1368DR,4236,4628,11593,01.192,552
2023-07-25T02:57:48,42.805,6.029,CST-1368DR,4236,4628,11592,01.192,552
2023-07-25T03:00:50,42.805,6.029,CST-1368DR,4236,4628,11592,01.192,552
2023-07-25T03:03:51,42.805,6.029,CST-1368DR,4236,4628,11592,01.192,552
2023-07-25T03:06:53,42.805,6.029,CST-1368DR,4236,4628,11591,01.192,552
2023-07-25T03:09:54,42.805,6.029,CST-1368DR,4236,4626,11588,01.193,552
2023-07-25T03:12:56,42.805,6.029,CST-1368DR,4236,4626,11587,01.194,552
2023-07-25T03:15:57,42.805,6.029,CST-1368DR,4236,4626,11587,01.194,552
2023-07-25T03:18:59,42.805,6.029,CST-1368DR,4236,4627,11590,01.193,552
2023-07-25T03:22:01,42.805,6.029,CST-1368DR,4236,4627,11589,01.193,552
2023-07-25T03:25:02,42.805,6.029,CST-1368DR,4236,4624,11583,01.195,552
2023-07-25T03:28:04,42.805,6.029,CST-1368DR,4235,4622,11580,01.196,552
2023-07-25T03:31:05,42.805,6.029,CST-1368DR,4236,4624,11583,01.195,552
2023-07-25T03:34:07,42.805,6.029,CST-1368DR,4236,4625,11585,01.194,552
2023-07-25T03:37:09,42.805,6.029,CST-1368DR,4236,4625,11585,01.194,552
2023-07-25T03:40:10,42.805,6.029,CST-1368DR,4236,4625,11584,01.195,552
2023-07-25T03:43:12,42.805,6.029,CST-1368DR,4235,4623,11583,01.195,552
2023-07-25T03:46:13,42.805,6.029,CST-1368DR,4235,4624,11585,01.194,552
2023-07-25T03:49:15,42.805,6.029,CST-1368DR,4235,4625,11586,01.194,552
2023-07-25T03:52:16,42.805,6.029,CST-1368DR,4236,4625,11584,01.195,552
2023-07-25T03:55:18,42.805,6.029,CST-1368DR,4235,4626,11589,01.193,552
2023-07-25T03:58:20,42.805,6.029,CST-1368DR,4235,4625,11587,01.194,552
2023-07-25T04:01:21,42.805,6.029,CST-1368DR,4235,4625,11587,01.194,552
2023-07-25T04:04:23,42.805,6.029,CST-1368DR,4235,4624,11585,01.194,552
2023-07-25T04:07:24,42.805,6.029,CST-1368DR,4236,4624,11583,01.195,552
2023-07-25T04:10:26,42.805,6.029,CST-1368DR,4236,4624,11581,01.196,552
2023-07-25T04:13:28,42.805,6.029,CST-1368DR,4236,4624,11582,01.195,552
2023-07-25T04:16:29,42.805,6.029,CST-1368DR,4235,4623,11583,01.195,552
2023-07-25T04:19:31,42.805,6.029,CST-1368DR,4235,4624,11584,01.195,553
2023-07-25T04:22:32,42.805,6.029,CST-1368DR,4235,4623,11581,01.196,552
2023-07-25T04:25:34,42.805,6.029,CST-1368DR,4235,4623,11582,01.195,552
2023-07-25T04:28:35,42.805,6.029,CST-1368DR,4235,4622,11579,01.196,552
2023-07-25T04:31:37,42.805,6.029,CST-1368DR,4235,4622,11580,01.196,552
2023-07-25T04:34:39,42.805,6.029,CST-1368DR,4235,4622,11578,01.197,552
2023-07-25T04:37:40,42.805,6.029,CST-1368DR,4235,4619,11572,01.199,552
2023-07-25T04:40:42,42.805,6.029,CST-1368DR,4235,4620,11575,01.198,552
2023-07-25T04:43:43,42.805,6.029,CST-1368DR,4235,4621,11576,01.197,552
2023-07-25T04:46:45,42.805,6.029,CST-1368DR,4235,4621,11577,01.197,552
2023-07-25T04:49:46,42.805,6.029,CST-1368DR,4235,4622,11580,01.196,552
2023-07-25T04:52:48,42.805,6.029,CST-1368DR,4235,4622,11578,01.197,552
2023-07-25T04:55:50,42.805,6.029,CST-1368DR,4235,4622,11578,01.197,552
2023-07-25T04:58:51,42.805,6.029,CST-1368DR,4235,4623,11581,01.196,552
2023-07-25T05:01:53,42.805,6.029,CST-1368DR,4235,4621,11577,01.197,552
2023-07-25T05:04:54,42.805,6.029,CST-1368DR,4235,4621,11577,01.197,552
2023-07-25T05:07:56,42.805,6.029,CST-1368DR,4235,4622,11579,01.196,552
2023-07-25T05:10:58,42.805,6.029,CST-1368DR,4235,4621,11577,01.197,552
2023-07-25T05:13:59,42.805,6.029,CST-1368DR,4235,4621,11578,01.197,552
2023-07-25T05:17:01,42.805,6.029,CST-1368DR,4235,4621,11577,01.197,552
2023-07-25T05:20:02,42.805,6.029,CST-1368DR,4235,4622,11580,01.196,552
2023-07-25T05:23:04,42.805,6.029,CST-1368DR,4235,4623,11581,01.196,552
2023-07-25T05:26:05,42.805,6.029,CST-1368DR,4235,4621,11578,01.197,552
2023-07-25T05:29:07,42.805,6.029,CST-1368DR,4235,4622,11580,01.196,552
2023-07-25T05:32:09,42.805,6.029,CST-1368DR,4235,4621,11577,01.197,552
2023-07-25T05:35:10,42.805,6.029,CST-1368DR,4235,4622,11579,01.196,552
2023-07-25T05:38:12,42.805,6.029,CST-1368DR,4235,4622,11580,01.196,553
2023-07-25T05:41:13,42.805,6.029,CST-1368DR,4235,4622,11580,01.196,552
2023-07-25T05:44:15,42.805,6.029,CST-1368DR,4235,4622,11580,01.196,552
2023-07-25T05:47:16,42.805,6.029,CST-1368DR,4235,4622,11578,01.197,552
2023-07-25T05:50:18,42.805,6.029,CST-1368DR,4235,4621,11577,01.197,552
2023-07-25T05:53:20,42.805,6.029,CST-1368DR,4235,4622,11580,01.196,552
2023-07-25T05:56:21,42.805,6.029,CST-1368DR,4235,4622,11578,01.197,552
2023-07-25T05:59:23,42.805,6.029,CST-1368DR,4235,4620,11573,01.198,552
2023-07-25T06:02:24,42.805,6.029,CST-1368DR,4235,4620,11573,01.198,552
2023-07-25T06:05:26,42.805,6.029,CST-1368DR,4235,4622,11579,01.196,552
2023-07-25T06:08:28,42.805,6.029,CST-1368DR,4235,4617,11567,01.201,552
2023-07-25T06:11:29,42.805,6.029,CST-1368DR,4235,4615,11561,01.203,552
2023-07-25T06:14:31,42.805,6.029,CST-1368DR,4235,4614,11560,01.203,552
2023-07-25T06:17:32,42.805,6.029,CST-1368DR,4235,4615,11562,01.202,552
2023-07-25T06:20:34,42.805,6.029,CST-1368DR,4235,4614,11558,01.204,552
2023-07-25T06:23:35,42.805,6.029,CST-1368DR,4235,4615,11562,01.202,552
2023-07-25T06:26:37,42.805,6.029,CST-1368DR,4235,4615,11562,01.202,552
2023-07-25T06:29:39,42.805,6.029,CST-1368DR,4235,4616,11564,01.202,552
2023-07-25T06:32:43,42.805,6.029,CST-1368DR,4235,4613,11557,01.204,552
2023-07-25T06:35:44,42.805,6.029,CST-1368DR,4235,4614,11558,01.204,552
2023-07-25T06:38:46,42.805,6.029,CST-1368DR,4235,4620,11573,01.198,552
2023-07-25T06:41:47,42.805,6.029,CST-1368DR,4235,4621,11576,01.197,552
2023-07-25T06:44:49,42.805,6.029,CST-1368DR,4235,4620,11573,01.198,552
2023-07-25T06:47:50,42.805,6.029,CST-1368DR,4235,4621,11577,01.197,552
2023-07-25T06:50:52,42.805,6.029,CST-1368DR,4235,4620,11575,01.198,552
2023-07-25T06:53:54,42.805,6.029,CST-1368DR,4235,4620,11573,01.198,552
2023-07-25T06:56:55,42.805,6.029,CST-1368DR,4235,4620,11575,01.198,552
2023-07-25T06:59:57,42.805,6.029,CST-1368DR,4235,4620,11575,01.198,552
2023-07-25T07:02:58,42.805,6.029,CST-1368DR,4235,4620,11575,01.198,552
2023-07-25T07:06:00,42.805,6.029,CST-1368DR,4235,4619,11571,01.199,552
2023-07-25T07:09:01,42.805,6.029,CST-1368DR,4235,4619,11573,01.198,552
2023-07-25T07:12:03,42.805,6.029,CST-1368DR,4235,4619,11573,01.198,552
2023-07-25T07:15:05,42.805,6.029,CST-1368DR,4235,4619,11573,01.198,552
2023-07-25T07:18:06,42.805,6.029,CST-1368DR,4235,4619,11572,01.199,552
2023-07-25T07:21:08,42.805,6.029,CST-1368DR,4235,4618,11569,01.200,552
2023-07-25T07:24:09,42.805,6.029,CST-1368DR,4235,4619,11572,01.199,552
2023-07-25T07:27:11,42.805,6.029,CST-1368DR,4235,4620,11573,01.198,552
2023-07-25T07:30:13,42.805,6.029,CST-1368DR,4235,4619,11571,01.199,552
2023-07-25T07:33:14,42.805,6.029,CST-1368DR,4235,4619,11571,01.199,552
2023-07-25T07:36:16,42.805,6.029,CST-1368DR,4235,4619,11572,01.199,552
2023-07-25T07:39:17,42.805,6.029,CST-1368DR,4235,4619,11572,01.199,552
2023-07-25T07:42:19,42.805,6.029,CST-1368DR,4235,4618,11569,01.200,552
2023-07-25T07:45:20,42.805,6.029,CST-1368DR,4235,4619,11572,01.199,552
2023-07-25T07:48:22,42.805,6.029,CST-1368DR,4235,4619,11572,01.199,552
2023-07-25T07:51:24,42.805,6.029,CST-1368DR,4235,4618,11570,01.200,552
2023-07-25T07:54:25,42.805,6.029,CST-1368DR,4235,4619,11572,01.199,552
2023-07-25T07:57:27,42.805,6.029,CST-1368DR,4235,4620,11575,01.198,552
2023-07-25T08:00:28,42.805,6.029,CST-1368DR,4235,4618,11569,01.200,552
2023-07-25T08:03:30,42.805,6.029,CST-1368DR,4235,4619,11572,01.199,552
2023-07-25T08:06:31,42.805,6.029,CST-1368DR,4235,4619,11572,01.199,552
2023-07-25T08:09:33,42.805,6.029,CST-1368DR,4235,4620,11573,01.198,553
2023-07-25T08:12:35,42.805,6.029,CST-1368DR,4235,4618,11569,01.200,552
2023-07-25T08:15:36,42.805,6.029,CST-1368DR,4235,4619,11572,01.199,552
2023-07-25T08:18:38,42.805,6.029,CST-1368DR,4235,4619,11572,01.199,552
2023-07-25T08:21:39,42.805,6.029,CST-1368DR,4235,4619,11572,01.199,552
2023-07-25T08:24:41,42.805,6.029,CST-1368DR,4235,4617,11567,01.201,552
2023-07-25T08:27:43,42.805,6.029,CST-1368DR,4235,4618,11569,01.200,552
2023-07-25T08:30:45,42.805,6.029,CST-1368DR,4235,4610,11550,01.206,552
2023-07-25T08:33:47,42.805,6.029,CST-1368DR,4235,4617,11566,01.201,552
2023-07-25T08:36:48,42.805,6.029,CST-1368DR,4235,4617,11568,01.200,552
2023-07-25T08:39:50,42.805,6.029,CST-1368DR,4235,4618,11570,01.200,552
2023-07-25T08:42:51,42.805,6.029,CST-1368DR,4235,4618,11570,01.200,552
2023-07-25T08:45:53,42.805,6.029,CST-1368DR,4235,4619,11572,01.199,552
2023-07-25T08:48:55,42.805,6.029,CST-1368DR,4235,4618,11570,01.200,552
2023-07-25T08:51:56,42.805,6.029,CST-1368DR,4235,4618,11570,01.200,552
2023-07-25T08:54:58,42.805,6.029,CST-1368DR,4235,4612,11555,01.205,552
2023-07-25T08:57:59,42.805,6.029,CST-1368DR,4235,4619,11572,01.199,552
2023-07-25T09:01:01,42.805,6.029,CST-1368DR,4235,4618,11568,01.200,552
2023-07-25T09:04:02,42.805,6.029,CST-1368DR,4235,4619,11572,01.199,552
2023-07-25T09:07:04,42.805,6.029,CST-1368DR,4235,4619,11572,01.199,552
2023-07-25T09:10:06,42.805,6.029,CST-1368DR,4235,4619,11572,01.199,552
2023-07-25T09:13:07,42.805,6.029,CST-1368DR,4234,4603,11535,01.212,552
2023-07-25T09:16:09,42.805,6.029,CST-1368DR,4235,4632,11605,01.187,552
2023-07-25T09:19:10,42.805,6.029,CST-1368DR,4235,4621,11577,01.197,552
2023-07-25T09:22:12,42.805,6.029,CST-1368DR,4235,4618,11570,01.200,552
2023-07-25T09:25:14,42.805,6.029,CST-1368DR,4235,4620,11575,01.198,552
2023-07-25T09:28:15,42.805,6.029,CST-1368DR,4235,4619,11573,01.198,552
2023-07-25T09:31:17,42.805,6.029,CST-1368DR,4235,4619,11572,01.199,552
2023-07-25T09:34:18,42.805,6.029,CST-1368DR,4235,4618,11570,01.200,552
2023-07-25T09:37:20,42.805,6.029,CST-1368DR,4235,4619,11573,01.198,552
2023-07-25T09:40:21,42.805,6.029,CST-1368DR,4235,4619,11573,01.198,552
2023-07-25T09:43:23,42.805,6.029,CST-1368DR,4235,4618,11570,01.200,552
2023-07-25T09:46:25,42.805,6.029,CST-1368DR,4235,4619,11572,01.199,552
2023-07-25T09:49:26,42.805,6.029,CST-1368DR,4235,4619,11572,01.199,552
2023-07-25T09:52:28,42.805,6.029,CST-1368DR,4235,4618,11569,01.200,552
2023-07-25T09:55:29,42.805,6.029,CST-1368DR,4235,4618,11570,01.200,552
2023-07-25T09:58:31,42.805,6.029,CST-1368DR,4235,4619,11571,01.199,552
2023-07-25T10:01:32,42.805,6.029,CST-1368DR,4235,4619,11571,01.199,552
2023-07-25T10:04:34,42.805,6.029,CST-1368DR,4235,4618,11570,01.200,552
2023-07-25T10:07:36,42.805,6.029,CST-1368DR,4235,4619,11573,01.198,552
2023-07-25T10:10:37,42.805,6.029,CST-1368DR,4235,4619,11573,01.198,552
2023-07-25T10:13:39,42.805,6.029,CST-1368DR,4235,4619,11572,01.199,552
2023-07-25T10:16:40,42.805,6.029,CST-1368DR,4235,4618,11570,01.200,552
2023-07-25T10:19:42,42.805,6.029,CST-1368DR,4235,4618,11570,01.200,552
2023-07-25T10:22:44,42.805,6.029,CST-1368DR,4235,4620,11573,01.198,552
2023-07-25T10:25:45,42.805,6.029,CST-1368DR,4235,4618,11570,01.200,552
2023-07-25T10:28:47,42.805,6.029,CST-1368DR,4235,4619,11572,01.199,552
2023-07-25T10:31:48,42.805,6.029,CST-1368DR,4235,4617,11568,01.200,552
2023-07-25T10:34:50,42.805,6.029,CST-1368DR,4235,4619,11571,01.199,552
2023-07-25T10:37:51,42.805,6.029,CST-1368DR,4235,4617,11567,01.201,552
2023-07-25T10:40:53,42.805,6.029,CST-1368DR,4235,4619,11571,01.199,552
2023-07-25T10:43:55,42.805,6.029,CST-1368DR,4235,4618,11570,01.200,552
2023-07-25T10:46:56,42.805,6.029,CST-1368DR,4235,4619,11573,01.198,552
2023-07-25T10:49:58,42.805,6.029,CST-1368DR,4235,4619,11571,01.199,552
2023-07-25T10:52:59,42.805,6.029,CST-1368DR,4235,4619,11571,01.199,553
2023-07-25T10:56:01,42.805,6.029,CST-1368DR,4235,4619,11573,01.198,552
2023-07-25T10:59:02,42.805,6.029,CST-1368DR,4235,4619,11573,01.198,552
2023-07-25T11:02:04,42.805,6.029,CST-1368DR,4235,4619,11572,01.199,552
2023-07-25T11:05:06,42.805,6.029,CST-1368DR,4235,4619,11572,01.199,552
2023-07-25T11:08:07,42.805,6.029,CST-1368DR,4235,4619,11573,01.198,552
2023-07-25T11:11:09,42.805,6.029,CST-1368DR,4235,4619,11571,01.199,552
2023-07-25T11:14:10,42.805,6.029,CST-1368DR,4235,4619,11572,01.199,552
2023-07-25T11:17:12,42.805,6.029,CST-1368DR,4235,4619,11572,01.199,553
2023-07-25T11:20:14,42.805,6.029,CST-1368DR,4235,4618,11570,01.200,552
2023-07-25T11:23:15,42.805,6.029,CST-1368DR,4235,4620,11575,01.198,552
2023-07-25T11:26:17,42.805,6.029,CST-1368DR,4235,4619,11572,01.199,552
2023-07-25T11:29:18,42.805,6.029,CST-1368DR,4235,4619,11573,01.198,552
2023-07-25T11:32:20,42.805,6.029,CST-1368DR,4235,4619,11572,01.199,552
2023-07-25T11:35:21,42.805,6.029,CST-1368DR,4235,4618,11570,01.200,552
2023-07-25T11:38:23,42.805,6.029,CST-1368DR,4235,4619,11571,01.199,552
2023-07-25T11:41:25,42.805,6.029,CST-1368DR,4235,4620,11575,01.198,552
2023-07-25T11:44:26,42.805,6.029,CST-1368DR,4235,4619,11572,01.199,552
2023-07-25T11:47:28,42.805,6.029,CST-1368DR,4235,4618,11570,01.200,552
2023-07-25T11:50:29,42.805,6.029,CST-1368DR,4235,4618,11570,01.200,552
2023-07-25T11:53:31,42.805,6.029,CST-1368DR,4235,4619,11572,01.199,552
2023-07-25T11:56:32,42.805,6.029,CST-1368DR,4235,4619,11572,01.199,552
2023-07-25T11:59:34,42.805,6.029,CST-1368DR,4235,4619,11573,01.198,552
2023-07-25T12:02:36,42.805,6.029,CST-1368DR,4235,4619,11572,01.199,552
2023-07-25T12:05:37,42.805,6.029,CST-1368DR,4235,4619,11571,01.199,552
2023-07-25T12:08:39,42.805,6.029,CST-1368DR,4235,4618,11570,01.200,552
2023-07-25T12:11:40,42.805,6.029,CST-1368DR,4235,4619,11572,01.199,552
2023-07-25T12:14:42,42.805,6.029,CST-1368DR,4235,4618,11568,01.200,552
2023-07-25T12:17:44,42.805,6.029,CST-1368DR,4235,4619,11571,01.199,552
2023-07-25T12:20:45,42.805,6.029,CST-1368DR,4235,4619,11572,01.199,552
2023-07-25T12:23:47,42.805,6.029,CST-1368DR,4235,4619,11571,01.199,552
2023-07-25T12:26:48,42.805,6.029,CST-1368DR,4235,4619,11572,01.199,552
2023-07-25T12:29:50,42.805,6.029,CST-1368DR,4235,4619,11573,01.198,552
2023-07-25T12:32:51,42.805,6.029,CST-1368DR,4235,4620,11575,01.198,552
2023-07-25T12:35:53,42.805,6.029,CST-1368DR,4235,4619,11573,01.198,552
2023-07-25T12:38:55,42.805,6.029,CST-1368DR,4235,4619,11571,01.199,552
2023-07-25T12:41:56,42.805,6.029,CST-1368DR,4235,4619,11571,01.199,552
2023-07-25T12:44:58,42.805,6.029,CST-1368DR,4235,4618,11568,01.200,552
2023-07-25T12:47:59,42.805,6.029,CST-1368DR,4235,4617,11567,01.201,552
2023-07-25T12:51:01,42.805,6.029,CST-1368DR,4235,4619,11572,01.199,552
2023-07-25T12:54:03,42.805,6.029,CST-1368DR,4235,4620,11573,01.198,552
2023-07-25T12:57:04,42.805,6.029,CST-1368DR,4235,4620,11575,01.198,552
2023-07-25T13:00:06,42.805,6.029,CST-1368DR,4235,4619,11572,01.199,552
2023-07-25T13:03:07,42.805,6.029,CST-1368DR,4235,4619,11571,01.199,552
2023-07-25T13:06:09,42.805,6.029,CST-1368DR,4235,4623,11582,01.195,552
2023-07-25T13:09:10,42.805,6.029,CST-1368DR,4235,4619,11572,01.199,552
2023-07-25T13:12:12,42.805,6.029,CST-1368DR,4235,4619,11571,01.199,552
2023-07-25T13:15:14,42.805,6.029,CST-1368DR,4235,4619,11572,01.199,552
2023-07-25T13:18:15,42.805,6.029,CST-1368DR,4235,4619,11572,01.199,552
2023-07-25T13:21:17,42.805,6.029,CST-1368DR,4235,4619,11572,01.199,552
2023-07-25T13:24:18,42.805,6.029,CST-1368DR,4235,4619,11572,01.199,552
2023-07-25T13:27:20,42.805,6.029,CST-1368DR,4235,4619,11571,01.199,552
2023-07-25T13:30:21,42.805,6.029,CST-1368DR,4235,4619,11572,01.199,552
2023-07-25T13:33:23,42.805,6.029,CST-1368DR,4235,4617,11568,01.200,552
2023-07-25T13:36:25,42.805,6.029,CST-1368DR,4235,4619,11571,01.199,552
2023-07-25T13:39:26,42.805,6.029,CST-1368DR,4235,4618,11569,01.200,552
2023-07-25T13:42:28,42.805,6.029,CST-1368DR,4235,4620,11573,01.198,552
2023-07-25T13:45:29,42.805,6.029,CST-1368DR,4235,4602,11529,01.214,552
2023-07-25T13:48:31,42.805,6.029,CST-1368DR,4235,4618,11570,01.200,552
2023-07-25T13:51:32,42.805,6.029,CST-1368DR,4235,4619,11572,01.199,552
2023-07-25T13:54:34,42.805,6.029,CST-1368DR,4235,4619,11572,01.199,552
2023-07-25T13:57:36,42.805,6.029,CST-1368DR,4235,4618,11570,01.200,552
2023-07-25T14:00:37,42.805,6.029,CST-1368DR,4235,4618,11570,01.200,552
2023-07-25T14:03:39,42.805,6.029,CST-1368DR,4235,4617,11568,01.200,552
2023-07-25T14:06:40,42.805,6.029,CST-1368DR,4235,4618,11568,01.200,552
2023-07-25T14:09:42,42.805,6.029,CST-1368DR,4235,4619,11572,01.199,552
2023-07-25T14:12:44,42.805,6.029,CST-1368DR,4235,4620,11575,01.198,552
2023-07-25T14:15:45,42.805,6.029,CST-1368DR,4235,4619,11573,01.198,552
2023-07-25T14:18:47,42.805,6.029,CST-1368DR,4235,4619,11572,01.199,552
2023-07-25T14:21:48,42.805,6.029,CST-1368DR,4235,4620,11573,01.198,552
2023-07-25T14:24:50,42.805,6.029,CST-1368DR,4235,4620,11573,01.198,552
2023-07-25T14:27:51,42.805,6.029,CST-1368DR,4235,4621,11576,01.197,552
2023-07-25T14:30:54,42.805,6.029,CST-1368DR,4235,4619,11573,01.198,552
2023-07-25T14:33:56,42.805,6.029,CST-1368DR,4235,4621,11576,01.197,552
2023-07-25T14:36:57,42.805,6.029,CST-1368DR,4235,4619,11573,01.198,552
2023-07-25T14:39:59,42.805,6.029,CST-1368DR,4235,4620,11575,01.198,552
2023-07-25T14:43:00,42.805,6.029,CST-1368DR,4235,4620,11573,01.198,552
2023-07-25T14:46:02,42.805,6.029,CST-1368DR,4235,4619,11572,01.199,552
2023-07-25T14:49:04,42.805,6.029,CST-1368DR,4235,4620,11573,01.198,552
2023-07-25T14:52:05,42.805,6.029,CST-1368DR,4235,4620,11575,01.198,552
2023-07-25T14:55:07,42.805,6.029,CST-1368DR,4235,4619,11572,01.199,552
2023-07-25T14:58:08,42.805,6.029,CST-1368DR,4235,4621,11577,01.197,552
2023-07-25T15:01:10,42.805,6.029,CST-1368DR,4235,4620,11573,01.198,553
2023-07-25T15:04:11,42.805,6.029,CST-1368DR,4235,4623,11583,01.195,552
2023-07-25T15:07:13,42.805,6.029,CST-1368DR,4235,4622,11580,01.196,552
2023-07-25T15:10:15,42.805,6.029,CST-1368DR,4235,4621,11577,01.197,552
2023-07-25T15:13:16,42.805,6.029,CST-1368DR,4235,4621,11577,01.197,552
2023-07-25T15:16:18,42.805,6.029,CST-1368DR,4235,4620,11575,01.198,552
2023-07-25T15:19:19,42.805,6.029,CST-1368DR,4235,4620,11575,01.198,552
2023-07-25T15:22:21,42.805,6.029,CST-1368DR,4235,4621,11576,01.197,552
2023-07-25T15:25:23,42.805,6.029,CST-1368DR,4235,4619,11573,01.198,552
2023-07-25T15:28:24,42.805,6.029,CST-1368DR,4235,4620,11575,01.198,552
2023-07-25T15:31:26,42.805,6.029,CST-1368DR,4235,4622,11578,01.197,552
2023-07-25T15:34:27,42.805,6.029,CST-1368DR,4235,4621,11577,01.197,552
2023-07-25T15:37:29,42.805,6.029,CST-1368DR,4235,4620,11575,01.198,552
2023-07-25T15:40:30,42.805,6.029,CST-1368DR,4235,4621,11576,01.197,552
2023-07-25T15:43:32,42.805,6.029,CST-1368DR,4235,4621,11577,01.197,552
2023-07-25T15:46:34,42.805,6.029,CST-1368DR,4235,4621,11578,01.197,552
2023-07-25T15:49:35,42.805,6.029,CST-1368DR,4235,4622,11580,01.196,552
2023-07-25T15:52:37,42.805,6.029,CST-1368DR,4235,4621,11578,01.197,552
2023-07-25T15:55:38,42.805,6.029,CST-1368DR,4235,4619,11573,01.198,552
2023-07-25T15:58:40,42.805,6.029,CST-1368DR,4235,4621,11577,01.197,552
2023-07-25T16:01:41,42.805,6.029,CST-1368DR,4235,4621,11577,01.197,552
2023-07-25T16:04:43,42.805,6.029,CST-1368DR,4235,4620,11573,01.198,552
2023-07-25T16:07:45,42.805,6.029,CST-1368DR,4235,4621,11577,01.197,552
2023-07-25T16:10:46,42.805,6.029,CST-1368DR,4235,4621,11577,01.197,552
2023-07-25T16:13:48,42.805,6.029,CST-1368DR,4235,4619,11573,01.198,552
2023-07-25T16:16:49,42.805,6.029,CST-1368DR,4235,4619,11573,01.198,552
2023-07-25T16:19:51,42.805,6.029,CST-1368DR,4235,4621,11576,01.197,552
2023-07-25T16:22:53,42.805,6.029,CST-1368DR,4235,4621,11577,01.197,552
2023-07-25T16:25:54,42.805,6.029,CST-1368DR,4235,4620,11575,01.198,552
2023-07-25T16:28:56,42.805,6.029,CST-1368DR,4235,4621,11577,01.197,552
2023-07-25T16:31:57,42.805,6.029,CST-1368DR,4235,4620,11575,01.198,552
2023-07-25T16:34:59,42.805,6.029,CST-1368DR,4235,4622,11579,01.196,552
2023-07-25T16:38:00,42.805,6.029,CST-1368DR,4235,4621,11577,01.197,552